Theta_e
342 345 346 346 346 346 345 344 343 342 341 338 336 337 341 339 338 337 339 341 341 340 339 339 336 335 336 333 332 333 332 332 332 331 331 332 332 332 333 332 331 331 331 331 331 333 332 331 332 329 325 324
340 342 344 344 344 345 345 344 343 343 342 340 339 339 339 339 340 338 340 340 341 340 338 337 336 335 335 333 333 332 333 332 333 333 332 333 334 333 332 332 332 332 332 335 337 335 333 331 331 328 324 323
341 338 341 342 342 343 343 343 342 341 340 339 338 338 338 336 337 337 338 338 338 338 337 336 334 334 335 335 333 334 334 333 333 334 336 336 333 332 332 332 332 334 335 335 335 335 333 331 329 327 325 323
343 337 337 338 339 340 340 340 340 338 336 336 335 335 334 335 333 333 334 334 335 334 336 336 332 333 334 337 334 334 334 334 333 332 333 334 333 333 332 333 332 334 335 335 335 332 331 329 326 325 323 323
344 341 335 335 335 335 336 337 336 334 331 330 328 328 328 331 331 330 332 331 330 331 332 330 329 331 332 334 337 338 338 337 336 334 333 332 332 333 335 335 335 334 335 335 334 332 329 326 325 324 324 324
343 342 337 341 339 337 335 332 332 331 333 338 332 325 331 330 331 329 328 330 334 329 331 330 327 328 330 332 333 335 337 338 337 336 335 334 334 334 335 333 329 329 330 331 332 330 326 326 324 324 324 323
340 342 341 341 340 341 335 338 337 336 335 333 333 332 331 330 330 328 328 328 332 332 327 330 326 327 328 330 331 332 334 335 336 337 337 338 337 336 334 330 326 327 326 325 327 326 326 325 323 324 324 324
338 341 341 340 336 336 338 337 337 336 335 334 332 333 332 329 328 328 329 337 341 339 331 329 325 326 327 328 329 329 331 332 333 334 335 334 334 334 330 327 325 324 323 324 325 326 326 325 324 324 325 324
337 337 337 338 336 335 335 336 335 335 335 335 334 333 332 330 328 330 329 331 332 331 331 329 328 326 326 326 326 326 325 326 327 328 326 327 328 326 325 324 324 324 323 323 325 325 326 325 325 325 326 324
336 337 336 335 336 336 336 337 335 335 334 334 336 335 333 332 330 329 328 327 328 330 329 329 328 329 328 327 327 327 325 325 326 326 327 326 326 326 325 325 324 324 324 324 324 324 323 324 324 324 324 324
336 336 336 336 337 337 336 338 337 336 336 335 335 334 335 333 331 329 327 327 327 327 327 326 326 326 328 329 329 329 327 327 327 327 325 325 326 326 325 325 325 325 325 325 324 324 323 324 324 324 324 324
334 335 335 335 335 338 335 336 337 336 337 337 336 336 335 333 333 332 329 329 327 327 326 326 326 326 325 324 325 326 326 326 326 324 324 323 323 324 324 324 324 325 325 325 325 324 324 324 324 324 324 324
334 334 335 334 334 335 334 337 338 338 338 336 336 336 336 335 334 333 332 331 330 328 327 327 327 326 325 325 325 325 324 325 324 324 323 323 323 324 324 323 324 324 325 324 324 324 324 324 324 324 325 325
334 334 333 334 334 334 333 335 336 336 337 335 335 336 337 336 335 334 333 332 332 331 329 329 329 329 327 325 325 324 324 324 324 323 323 323 323 323 323 322 324 322 323 324 324 323 324 324 325 324 324 325
334 335 334 334 335 336 336 336 336 335 336 335 335 336 336 337 336 335 334 333 332 331 331 331 331 330 330 328 327 327 326 324 324 324 323 324 323 324 323 323 323 323 323 323 324 324 324 324 324 324 324 324
335 334 335 335 336 335 336 336 336 335 335 332 333 334 334 336 336 334 334 334 333 332 331 331 331 331 330 329 330 330 328 326 324 324 324 324 324 325 324 325 325 324 322 322 323 323 323 324 324 324 324 324
335 336 336 334 334 335 337 336 334 334 334 335 335 335 334 334 336 336 335 335 334 332 331 331 331 330 330 330 330 331 330 329 327 325 324 326 326 326 326 325 325 325 325 324 324 324 324 324 322 323 323 323
336 337 336 335 335 335 335 335 334 333 334 335 335 334 334 335 335 335 335 334 333 333 331 330 330 330 330 329 329 329 329 328 328 326 326 326 326 324 325 325 325 324 323 323 323 324 324 324 325 323 322 322
336 337 338 337 336 335 336 335 334 334 334 335 336 336 334 335 334 335 335 334 334 333 331 329 328 329 330 330 330 327 327 328 327 326 326 326 325 325 325 325 325 325 324 324 324 324 324 324 325 324 324 323
336 337 337 337 335 337 337 335 335 336 336 336 336 335 334 334 334 334 334 335 335 333 332 330 329 328 329 329 329 328 328 329 327 327 327 327 326 324 324 325 325 325 325 325 324 324 324 324 324 324 323 323
335 336 336 336 337 337 337 337 336 337 337 337 336 335 333 334 334 333 334 335 334 333 331 329 330 328 329 329 329 328 328 328 329 328 328 326 326 326 324 325 325 325 325 325 325 325 324 324 324 324 324 324
332 334 337 336 337 335 336 336 337 336 336 336 335 336 335 335 336 334 335 335 334 334 333 332 331 331 331 330 329 328 328 328 329 329 328 326 326 326 325 324 324 324 325 325 326 326 325 325 324 324 324 325
323 331 332 333 334 335 336 336 336 337 336 336 335 335 336 336 336 335 336 336 335 335 334 333 333 333 333 332 331 330 329 329 329 329 328 327 326 327 327 326 325 325 325 325 325 325 325 325 325 325 325 324
316 319 325 328 330 330 331 333 331 333 334 335 335 335 335 335 336 337 335 335 335 335 334 333 333 333 333 332 332 330 329 329 329 328 327 327 327 326 326 326 326 326 325 324 324 322 324 325 325 324 324 324
310 311 315 322 326 326 328 329 331 333 334 335 335 335 335 335 336 336 336 336 336 335 333 334 334 333 333 333 332 331 330 330 330 330 329 328 327 325 325 325 326 326 325 323 321 323 323 323 324 323 322 323
307 309 311 313 316 319 327 327 327 329 332 333 334 334 335 335 334 334 334 334 335 335 335 334 333 333 333 332 332 331 331 331 327 329 329 328 326 327 325 324 326 325 324 320 318 317 317 318 320 322 322 322
305 307 308 310 310 311 313 314 313 314 314 317 319 324 331 333 333 333 332 333 333 334 334 334 333 333 333 333 332 331 330 330 329 329 329 328 327 325 326 325 326 325 325 320 321 320 317 314 312 314 318 322
303 305 305 307 308 310 311 309 310 310 310 311 312 314 316 318 323 331 334 334 333 334 334 334 333 333 333 333 332 331 330 330 329 329 329 329 328 327 324 324 324 326 326 324 321 314 314 313 313 312 312 315
301 301 302 303 304 305 307 307 306 306 307 309 309 311 311 312 315 316 319 326 330 330 331 333 333 333 333 332 333 332 331 330 330 330 330 330 328 327 325 323 324 325 325 325 325 320 314 313 312 312 312 315
299 298 298 299 299 298 300 300 300 300 303 305 306 307 309 311 312 313 314 315 315 317 318 322 327 331 332 332 331 331 331 331 330 330 330 330 329 328 327 325 324 323 324 324 324 324 323 319 314 312 313 313
297 295 295 296 296 297 297 298 299 300 302 303 304 306 306 307 309 309 310 310 311 311 311 313 315 318 324 330 331 329 330 330 330 330 330 330 329 329 327 326 323 323 323 323 323 324 324 323 321 320 314 309
Wind_Speed
8 8 9 8 8 7 7 8 8 8 6 6 6 5 4 6 6 7 5 2 4 6 3 1 1 3 3 3 2 4 5 6 6 4 5 7 7 7 8 7 6 6 8 8 8 8 9 9 9 8 7 5
9 8 8 8 7 7 7 8 8 6 5 6 5 5 4 4 5 4 4 4 2 2 5 5 4 4 2 3 4 4 7 7 8 8 7 7 5 6 7 7 7 7 9 8 6 6 8 9 9 9 8 5
6 9 8 7 6 6 6 7 7 6 6 6 6 5 4 4 4 5 5 5 3 3 4 5 6 6 6 5 6 7 7 8 8 9 6 3 4 7 8 8 7 8 8 9 4 5 7 9 9 11 7 5
5 7 9 8 6 5 5 7 6 5 5 6 5 5 5 4 3 3 4 6 4 5 6 6 5 5 7 7 9 8 8 8 7 6 6 6 7 9 10 9 9 8 9 8 7 7 8 8 10 7 6 6
7 7 9 7 6 5 4 5 6 5 5 4 4 4 4 4 3 3 4 6 5 7 4 8 9 6 5 7 7 8 7 7 7 7 8 8 9 10 9 8 9 9 8 8 10 11 11 11 7 6 6 7
5 6 7 5 4 3 4 3 3 3 3 4 3 6 4 3 3 5 4 5 8 7 7 9 11 10 8 7 7 7 8 8 9 9 10 10 11 11 9 8 5 4 8 11 13 14 15 9 6 7 7 7
4 8 6 5 6 5 6 5 5 4 4 4 4 4 5 5 5 5 5 6 7 7 10 9 11 11 10 9 9 9 9 9 9 9 10 10 10 10 11 7 5 6 6 6 11 13 10 7 7 7 7 7
2 7 6 6 5 6 7 6 6 6 5 6 5 5 5 6 5 6 7 4 7 7 6 7 12 13 12 12 13 13 9 9 9 10 10 11 12 10 6 6 6 6 6 6 7 7 7 7 7 7 7 7
3 3 6 6 6 6 6 6 6 7 7 5 6 6 5 4 4 6 5 4 4 5 5 5 5 6 6 6 6 9 5 6 6 7 6 7 9 6 7 6 6 6 6 6 7 7 6 6 7 7 8 7
4 3 2 3 5 5 5 6 6 6 5 5 5 5 5 5 4 3 4 4 4 4 5 5 6 6 6 6 6 6 6 6 6 6 7 8 8 7 7 7 7 7 7 7 7 7 4 6 7 7 7 7
3 3 4 3 3 3 4 3 5 4 5 6 5 5 5 5 4 4 4 4 3 4 4 4 5 6 7 7 7 6 7 7 7 7 7 7 7 7 7 8 7 7 7 7 5 4 4 4 4 5 5 5
3 3 3 4 4 2 2 3 3 5 5 4 5 5 4 5 5 5 3 4 4 3 3 4 4 4 4 5 7 6 7 7 7 7 7 5 4 5 4 5 5 5 4 5 5 5 6 6 6 6 6 6
3 3 4 3 3 3 3 3 3 3 3 3 3 5 5 5 5 5 4 3 2 2 3 3 3 3 4 4 4 4 5 5 4 5 5 4 4 5 5 5 6 6 6 6 6 6 6 6 6 7 7 7
4 4 3 4 4 3 2 3 4 3 3 3 4 4 3 6 5 5 4 4 4 3 3 3 4 4 4 4 4 3 4 4 4 4 3 3 4 4 4 4 6 5 5 5 5 6 7 7 8 7 7 7
3 4 4 3 4 5 5 5 4 3 4 3 4 5 5 5 6 5 5 5 4 4 5 5 5 5 4 5 4 4 5 3 3 3 3 4 4 5 5 5 5 6 6 6 7 6 7 7 7 7 7 7
1 2 2 2 1 3 5 5 5 5 5 5 5 4 4 5 5 5 5 5 5 5 5 5 5 6 6 6 5 5 5 6 3 2 2 2 3 4 4 5 4 4 4 4 6 5 6 7 7 7 7 7
3 2 3 3 3 3 2 2 3 4 4 4 4 3 5 5 6 6 6 5 6 5 5 5 6 6 6 6 5 6 7 6 4 2 2 4 4 5 5 5 6 5 6 6 6 6 6 6 6 6 6 7
3 3 4 3 2 2 2 2 2 3 3 3 3 3 3 4 4 5 6 5 5 5 5 5 6 5 5 5 5 6 6 6 5 4 3 4 5 6 6 6 5 5 7 7 6 6 6 6 8 7 7 6
3 3 3 2 2 2 2 3 3 3 3 3 3 3 4 4 2 3 4 5 5 5 5 5 5 6 6 5 5 6 5 5 5 5 6 6 6 6 6 6 5 6 7 7 7 6 5 7 7 7 9 9
2 3 2 1 2 3 3 3 3 3 3 3 3 3 4 4 4 3 3 3 4 4 4 5 5 5 5 5 6 6 5 5 5 5 5 6 6 6 6 6 7 6 8 8 9 8 8 9 9 9 7 6
2 2 2 2 1 2 2 2 2 2 3 3 3 4 3 3 4 4 3 3 3 3 4 5 5 5 3 3 4 4 5 5 5 5 5 5 6 6 6 6 7 7 7 8 8 8 9 10 9 9 8 9
3 0 1 0 0 0 1 2 3 3 2 2 3 3 3 3 4 3 3 3 3 4 4 4 4 4 4 4 4 4 3 5 4 5 6 6 5 6 7 7 8 9 8 7 7 8 8 8 7 8 8 9
13 8 1 1 2 3 4 4 4 3 3 3 2 3 2 4 4 3 3 4 4 4 4 4 4 5 5 4 5 5 5 5 5 5 6 7 7 6 7 8 8 8 7 8 8 9 9 8 9 8 8 7
12 11 10 7 3 3 2 2 2 1 2 3 3 3 3 3 3 4 5 4 4 5 5 5 5 5 5 5 5 6 6 6 5 6 5 7 7 8 7 7 8 7 8 8 9 10 11 11 13 14 13 12
11 12 12 11 8 7 5 4 3 4 3 3 3 3 4 4 4 3 4 4 5 5 5 5 5 6 5 5 5 6 7 7 8 7 6 7 7 9 9 8 7 8 7 8 9 9 11 11 11 15 14 15
10 9 8 8 10 11 8 8 9 6 5 5 4 4 4 4 4 5 5 5 4 5 5 5 4 4 5 5 6 6 6 7 7 7 7 5 6 6 9 9 7 6 4 8 8 8 7 9 9 13 14 14
12 11 10 10 9 10 9 13 12 13 14 13 14 12 10 6 7 6 6 5 4 4 4 4 5 6 5 5 6 6 7 7 8 8 8 8 8 7 6 8 6 7 8 8 4 5 6 8 5 3 5 9
14 12 11 11 10 10 10 10 12 13 14 15 16 14 13 13 14 13 8 5 4 5 5 6 6 5 5 6 5 6 7 7 7 7 7 8 8 8 10 7 5 7 8 8 5 5 7 5 4 8 3 3
14 14 15 14 14 14 14 15 14 14 15 14 13 13 15 13 13 15 15 16 14 9 7 6 5 5 6 6 6 5 7 7 7 7 7 8 8 9 9 10 7 6 9 10 9 7 5 5 3 4 2 7
13 15 14 14 15 15 13 14 15 15 12 12 13 12 12 13 14 15 14 14 15 17 17 16 14 10 6 6 6 5 7 7 7 7 8 8 7 8 9 9 8 8 5 9 10 12 11 5 4 6 5 7
13 15 14 15 14 12 11 10 9 10 11 10 10 10 12 12 13 15 14 14 15 16 15 13 13 15 14 9 5 5 6 7 8 8 8 8 8 8 7 7 9 9 7 4 8 9 10 11 10 6 5 5
Wind_Direction
167 173 176 181 177 182 179 178 173 179 179 177 196 204 151 94 93 90 73 41 197 175 206 201 99 47 9 320 314 297 285 268 257 238 235 250 236 241 219 228 233 249 267 260 228 231 227 221 209 207 212 234
165 176 178 182 177 190 182 174 178 185 181 170 193 207 167 141 134 130 117 109 77 219 207 206 157 155 150 231 231 269 262 253 251 243 247 248 254 278 275 286 279 276 270 267 257 242 234 225 216 209 213 228
171 177 181 176 174 171 178 182 177 185 181 182 192 197 204 201 172 151 152 139 137 168 218 233 203 181 180 198 222 226 255 266 256 255 255 287 288 274 277 273 271 262 257 275 225 221 223 226 218 213 212 227
171 179 174 177 169 169 174 188 177 173 187 188 185 184 188 195 203 174 173 171 160 176 194 214 227 212 194 198 205 215 227 252 266 271 275 282 276 264 256 256 261 262 262 267 259 236 225 221 219 221 218 227
167 176 174 172 176 170 184 182 176 172 171 173 176 168 184 185 217 205 201 199 197 188 192 198 209 217 207 215 215 213 218 226 226 237 249 250 255 264 271 257 242 245 256 260 258 250 238 225 220 220 222 225
172 159 174 173 170 181 177 190 183 173 185 186 187 201 186 209 214 222 233 198 204 196 195 195 198 197 194 206 220 233 230 220 218 221 228 236 237 243 253 262 241 232 239 245 250 249 243 231 223 221 224 230
147 157 172 184 183 185 189 185 187 196 205 204 207 198 206 207 229 234 224 221 199 200 189 188 195 197 199 201 211 220 227 231 228 230 231 233 237 239 241 243 241 240 242 250 256 253 244 228 227 231 232 233
182 152 174 191 191 181 180 193 191 200 212 208 210 211 203 202 213 219 226 205 158 139 154 174 190 194 193 202 207 211 218 224 227 228 232 234 235 237 235 230 231 233 237 239 241 240 232 222 227 233 237 236
197 163 169 186 191 189 173 187 187 189 202 211 201 205 214 223 209 205 224 180 186 177 185 168 176 195 203 206 215 212 214 218 223 224 230 236 237 229 229 227 228 227 238 239 240 232 216 219 222 232 239 234
184 171 201 228 187 186 196 176 184 188 196 202 198 198 201 230 251 235 203 232 198 201 198 203 194 192 202 203 214 204 215 220 218 216 215 224 223 221 221 222 222 220 219 230 239 244 222 212 219 223 233 239
170 179 210 215 223 189 193 179 174 187 192 198 199 198 195 196 243 249 219 233 229 216 217 224 216 209 191 201 213 207 210 214 215 219 222 215 212 209 207 216 215 214 215 219 230 242 251 254 254 253 252 251
190 210 209 214 228 207 173 192 201 197 199 196 190 187 193 198 211 244 246 225 239 232 218 226 238 233 225 213 209 205 190 201 211 216 217 222 231 230 229 228 233 235 244 245 242 249 251 253 256 255 253 251
208 213 208 209 220 203 198 184 200 216 220 226 209 188 196 184 209 233 239 276 270 287 283 282 277 267 253 238 239 218 231 220 232 235 229 227 229 226 227 227 228 225 228 228 227 227 232 234 239 242 243 241
202 218 218 203 196 204 189 206 214 226 225 214 208 219 192 188 195 205 220 226 250 256 258 258 271 284 285 271 261 258 249 232 220 234 265 271 263 259 253 246 237 220 227 232 229 227 230 231 232 230 230 233
218 207 211 226 195 187 186 193 201 226 240 239 231 216 197 196 192 204 213 217 217 222 225 227 235 243 252 270 276 283 280 275 240 227 226 245 258 257 256 256 251 235 238 241 242 238 237 238 234 235 237 239
295 298 296 285 240 209 200 192 195 210 211 226 230 222 220 194 201 198 217 221 228 226 219 219 221 226 224 224 229 241 263 267 263 246 282 317 312 305 301 291 292 286 271 263 250 246 240 238 234 235 235 239
203 261 278 269 267 274 262 237 229 221 221 229 228 225 224 208 192 196 205 219 232 234 232 225 223 229 221 213 210 218 225 233 239 256 316 306 312 302 300 293 287 289 282 275 273 277 273 267 260 248 238 238
193 210 230 228 241 262 275 246 238 246 257 253 254 260 249 229 214 198 197 204 223 233 239 234 232 231 233 225 217 220 213 215 202 201 221 250 259 264 270 270 268 271 275 272 271 263 267 269 265 262 254 242
185 191 210 254 278 288 293 295 272 272 272 275 263 275 294 299 268 232 212 199 208 229 242 245 240 235 232 228 232 225 210 189 189 201 217 208 226 239 251 260 262 266 270 270 264 262 267 265 267 256 248 241
171 227 268 267 194 220 229 246 287 297 288 279 277 268 269 277 283 285 272 245 217 231 243 251 253 243 226 226 228 220 213 201 205 205 221 221 212 228 240 243 249 242 249 250 253 252 257 261 261 265 265 257
210 219 172 208 284 310 313 278 246 243 269 286 282 271 275 266 261 260 260 250 247 246 253 264 269 272 265 256 234 225 223 213 201 205 222 225 215 214 235 237 251 249 246 249 248 245 242 243 247 250 254 258
6 91 262 345 102 22 321 326 319 309 287 280 289 297 271 257 262 265 262 260 253 246 249 253 261 275 279 284 278 261 237 232 224 223 220 232 215 213 225 238 243 252 256 262 266 265 260 261 256 253 245 242
356 347 24 158 185 199 215 218 231 233 268 266 274 280 294 303 284 254 238 241 243 249 256 266 269 270 268 268 271 273 267 254 240 233 223 225 232 229 228 231 234 247 256 259 258 260 261 264 264 270 263 255
9 5 354 342 332 336 308 283 270 267 292 294 285 273 289 307 312 297 294 278 252 234 228 229 245 258 260 258 255 254 258 264 265 255 244 236 232 239 242 237 241 245 255 261 263 263 264 259 259 260 260 260
12 7 356 348 357 357 351 31 34 33 345 318 299 301 300 292 286 269 258 249 264 270 255 242 236 236 246 246 245 252 252 250 252 253 247 242 228 235 244 244 235 240 241 259 264 256 260 264 252 250 245 245
17 17 10 0 3 350 340 7 6 359 354 331 308 305 296 296 292 290 284 282 262 241 238 255 257 258 256 252 252 247 245 249 255 256 255 250 249 221 235 250 233 231 198 246 252 277 289 272 255 235 232 235
19 9 11 23 18 14 14 22 16 14 11 8 6 4 358 347 326 307 303 291 294 301 284 260 253 242 237 242 247 253 253 247 245 242 246 244 245 256 237 248 238 229 204 252 261 260 288 289 313 326 242 234
15 13 17 25 27 33 44 27 19 17 13 8 5 3 4 9 1 352 336 313 309 296 281 275 273 274 262 255 241 244 252 254 251 246 247 248 246 241 256 246 245 212 220 227 241 269 225 258 297 311 303 324
14 17 24 19 23 25 21 23 22 18 13 4 357 359 5 3 5 6 4 360 353 333 307 291 286 270 267 265 259 255 259 257 255 254 247 242 240 236 243 255 255 231 215 223 211 238 298 293 280 242 308 351
20 26 23 23 24 21 19 22 18 15 1 355 358 357 347 0 7 11 10 9 6 7 4 355 340 317 288 272 270 261 257 259 264 257 257 254 251 245 237 246 253 255 215 220 219 222 234 256 280 319 321 355
20 27 27 32 33 28 23 24 20 11 4 360 355 357 359 360 5 13 12 11 7 6 2 357 352 351 340 319 284 275 270 264 258 255 247 246 242 245 240 228 247 251 255 230 228 235 239 246 251 263 307 277